Preview of NWS' New Version of Forecast
This preview is not operational and should not be used for support decisions.

Regional Weather Roundup (RWR)

Issued by Raleigh, NC (RAH)

                            
000
ASUS42 KRAH 170510
RWRRAH
NORTH CAROLINA WEATHER ROUNDUP
NATIONAL WEATHER SERVICE RALEIGH NC
1200 AM EST MON DEC 17 2018

NOTE: "FAIR" INDICATES FEW OR NO CLOUDS BELOW 12,000 FEET WITH NO
SIGNIFICANT WEATHER AND/OR OBSTRUCTIONS TO VISIBILITY.

NCZ001-053-055-056-065-067-170600-
WESTERN NORTH CAROLINA
  
CITY           SKY/WX    TMP DP  RH WIND       PRES   REMARKS
ASHEVILLE      CLOUDY    44  40  85 NW13      30.11R                  
JEFFERSON      CLOUDY    40  37  87 NW17      30.06F WCI  32          
MORGANTON      FAIR      41  37  87 CALM      30.07R                  
HICKORY        FAIR      43  38  82 W6        30.03F                  
RUTHERFORDTON  FAIR      39  39 100 CALM      30.06F                  
MOUNT AIRY     FAIR      51  42  71 NW9G18    30.02S                  
BOONE          CLOUDY    40  39  99 W21G33    30.05F FOG     WCI  30  
$$
 
NCZ021-022-025-041-071-084-088-170600-
CENTRAL NORTH CAROLINA
  
CITY           SKY/WX    TMP DP  RH WIND       PRES   REMARKS
CHARLOTTE      FAIR      43  39  86 NW5       30.05S                  
GREENSBORO     FAIR      44  40  85 W7        29.99F                  
WINSTON-SALEM  FAIR      47  39  74 W7        30.01F                  
RALEIGH-DURHAM FAIR      43  40  89 W3        29.99S                  
FORT BRAGG     FAIR      46  42  84 W7        30.00R                  
FAYETTEVILLE   FAIR      49  42  77 W7        30.00S                  
BURLINGTON     FAIR      42  39  89 W3        29.99F                  
LAURINBURG     FAIR     N/A N/A N/A W3        30.03S                  
$$
 
NCZ011-015-027-028-043-044-047-080-103-170600-
NORTHEASTERN NORTH CAROLINA
  
CITY           SKY/WX    TMP DP  RH WIND       PRES   REMARKS
ROCKY MT-WILSO FAIR      49  43  80 W5        29.98R                  
GREENVILLE     FAIR      50  46  87 CALM      29.98S                  
WASHINGTON     MOCLDY    51  47  88 NW7       29.96R                  
ELIZABETH CITY FAIR      45  41  86 NW9       29.93F                  
MANTEO         MOCLDY    47  42  82 N6        29.92F                  
CAPE HATTERAS  CLOUDY    54  49  83 NW10G22   29.91R                  
$$
 
NCZ078-087-090-091-093-098-101-170600-
SOUTHEASTERN NORTH CAROLINA
  
CITY           SKY/WX    TMP DP  RH WIND       PRES   REMARKS
LUMBERTON      FAIR      47  43  86 W5        30.01S                  
GOLDSBORO      FAIR      51  43  75 W7        29.96R                  
KINSTON        FAIR      51  45  80 NW5       29.97S                  
KENANSVILLE    FAIR      50  45  81 W3        29.98S                  
NEW BERN       FAIR      53  46  77 W8        29.96R                  
CHERRY POINT   FAIR      54  48  80 W12       29.95S                  
BEAUFORT       FAIR      54  46  74 W15       29.94S                  
JACKSONVILLE   FAIR      50  46  86 W12       29.96S                  
WILMINGTON     FAIR      50  44  80 W8        29.99S                  
$$